Simultaneous Nadir Overpasses (SNOs) Predictions

Prediction of SNOs between GOES-15 and TERRA Satellite Orbit:

Table of predicted SNOs for the next 14.0 days since TLE Epoch: 5/4/2024
Index Date Time (GOES-15) GOES-15 Lat,Lon TERRA Lat,Lon Distance(km) Time Diff (sec)
1 05/04/2024 05:50:00 -0.16, 61.48 0.07, 60.25 139.52 80
2 05/06/2024 05:30:06 -0.16, 61.51 -0.75, 64.41 329.46 80
3 05/06/2024 17:52:53 0.16, 61.48 -0.28, 59.52 224.08 80
4 05/08/2024 17:33:00 0.17, 61.52 0.62, 63.66 244.26 80
5 05/09/2024 05:55:37 -0.16, 61.55 0.39, 58.81 311.14 80
6 05/11/2024 05:35:43 -0.17, 61.59 -0.47, 62.97 156.58 80
7 05/11/2024 17:58:30 0.17, 61.58 -0.55, 58.08 397.23 80
8 05/13/2024 17:38:36 0.18, 61.62 0.34, 62.23 70.48 80
9 05/14/2024 06:01:11 -0.17, 61.66 0.72, 57.39 484.87 80
10 05/16/2024 05:43:57 -0.18, 61.70 -0.13, 61.55 17.17 80
